Time,TemperatureF,DewpointF,PressureIn,WindDirection,WindDirectionDegrees,WindSpeedMPH,WindSpeedGustMPH,Humidity,HourlyPrecipIn,Conditions,Clouds,dailyrainin,SolarRadiationWatts/m^2,SoftwareType,DateUTC
2013-10-27 00:02:00,30.7,26.8,30.07,West,279,0.0,0.0,85,0.00,,,0.00,0.0,meteohub,2013-10-27 05:02:00,
2013-10-27 00:07:00,30.6,26.6,30.07,West,279,0.0,0.0,85,0.00,,,0.00,0.0,meteohub,2013-10-27 05:07:00,
2013-10-27 00:12:00,30.7,26.8,30.07,West,279,0.0,0.0,85,0.00,,,0.00,0.0,meteohub,2013-10-27 05:12:00,
2013-10-27 00:18:00,30.7,26.8,30.06,West,279,0.0,0.0,85,0.00,,,0.00,0.0,meteohub,2013-10-27 05:18:00,
2013-10-27 00:23:00,30.6,26.6,30.06,West,279,0.0,0.0,85,0.00,,,0.00,0.0,meteohub,2013-10-27 05:23:00,
2013-10-27 00:28:00,30.6,26.6,30.06,West,279,0.0,0.0,85,0.00,,,0.00,0.0,meteohub,2013-10-27 05:28:00,
2013-10-27 00:33:00,30.6,26.6,30.06,West,279,0.0,0.0,85,0.00,,,0.00,0.0,meteohub,2013-10-27 05:33:00,
2013-10-27 00:38:00,30.6,26.6,30.05,West,279,0.0,0.0,85,0.00,,,0.00,0.0,meteohub,2013-10-27 05:38:00,
2013-10-27 00:43:00,30.6,26.6,30.05,West,279,0.0,0.0,85,0.00,,,0.00,0.0,meteohub,2013-10-27 05:43:00,
2013-10-27 00:48:00,30.6,26.6,30.04,West,279,0.0,0.0,85,0.00,,,0.00,0.0,meteohub,2013-10-27 05:48:00,
2013-10-27 00:53:00,30.6,26.6,30.04,West,279,0.0,0.0,85,0.00,,,0.00,0.0,meteohub,2013-10-27 05:53:00,
2013-10-27 00:58:00,30.6,26.6,30.04,West,279,0.0,0.0,85,0.00,,,0.00,0.0,meteohub,2013-10-27 05:58:00,
2013-10-27 01:03:00,30.4,26.4,30.04,West,279,0.0,0.0,85,0.00,,,0.00,0.0,meteohub,2013-10-27 06:03:00,
2013-10-27 01:08:00,30.4,26.1,30.04,West,279,0.0,0.0,84,0.00,,,0.00,0.0,meteohub,2013-10-27 06:08:00,
2013-10-27 01:13:00,30.2,26.2,30.03,West,279,0.0,0.0,85,0.00,,,0.00,0.0,meteohub,2013-10-27 06:13:00,
2013-10-27 01:18:00,30.0,26.1,30.03,West,279,0.0,0.0,85,0.00,,,0.00,0.0,meteohub,2013-10-27 06:18:00,
2013-10-27 01:23:00,30.0,26.1,30.02,West,278,0.0,1.0,85,0.00,,,0.00,0.0,meteohub,2013-10-27 06:23:00,
2013-10-27 01:28:00,29.8,25.9,30.02,SW,228,0.0,1.0,85,0.00,,,0.00,0.0,meteohub,2013-10-27 06:28:00,
2013-10-27 01:33:00,29.8,25.9,30.02,SW,228,0.0,2.0,85,0.00,,,0.00,0.0,meteohub,2013-10-27 06:33:00,
2013-10-27 01:38:00,29.8,25.9,30.02,SW,227,0.0,2.0,85,0.00,,,0.00,0.0,meteohub,2013-10-27 06:38:00,
2013-10-27 01:43:00,29.8,25.9,30.02,WSW,238,0.0,2.0,85,0.00,,,0.00,0.0,meteohub,2013-10-27 06:43:00,
2013-10-27 01:48:00,29.7,25.7,30.02,WSW,238,0.0,2.0,85,0.00,,,0.00,0.0,meteohub,2013-10-27 06:48:00,
2013-10-27 01:53:00,29.7,25.7,30.02,WSW,238,0.0,2.0,85,0.00,,,0.00,0.0,meteohub,2013-10-27 06:53:00,
2013-10-27 01:58:00,29.7,25.7,30.01,WSW,238,0.0,2.0,85,0.00,,,0.00,0.0,meteohub,2013-10-27 06:58:00,
2013-10-27 02:03:00,29.7,25.7,30.01,WSW,238,0.0,0.0,85,0.00,,,0.00,0.0,meteohub,2013-10-27 07:03:00,
2013-10-27 02:08:00,29.7,26.1,30.01,WSW,238,0.0,0.0,86,0.00,,,0.00,0.0,meteohub,2013-10-27 07:08:00,
2013-10-27 02:13:00,29.5,25.9,30.01,WSW,238,0.0,0.0,86,0.00,,,0.00,0.0,meteohub,2013-10-27 07:13:00,
2013-10-27 02:18:00,29.5,25.5,30.01,WSW,238,0.0,1.0,85,0.00,,,0.00,0.0,meteohub,2013-10-27 07:18:00,
2013-10-27 02:23:00,29.5,25.5,30.01,WSW,238,0.0,1.0,85,0.00,,,0.00,0.0,meteohub,2013-10-27 07:23:00,
2013-10-27 02:28:00,29.5,25.9,30.01,WSW,238,0.0,1.0,86,0.00,,,0.00,0.0,meteohub,2013-10-27 07:28:00,
2013-10-27 02:33:00,29.5,25.9,30.01,WSW,238,0.0,0.0,86,0.00,,,0.00,0.0,meteohub,2013-10-27 07:33:00,
2013-10-27 02:39:00,29.7,26.1,30.00,WSW,238,0.0,0.0,86,0.00,,,0.00,0.0,meteohub,2013-10-27 07:39:00,
2013-10-27 02:44:00,29.8,26.2,30.00,WSW,238,0.0,0.0,86,0.00,,,0.00,0.0,meteohub,2013-10-27 07:44:00,
2013-10-27 02:49:00,29.8,26.2,30.00,WSW,238,0.0,0.0,86,0.00,,,0.00,0.0,meteohub,2013-10-27 07:49:00,
2013-10-27 02:54:00,29.8,26.2,29.99,WSW,238,0.0,0.0,86,0.00,,,0.00,0.0,meteohub,2013-10-27 07:54:00,
2013-10-27 02:59:00,30.0,26.4,29.99,WSW,238,0.0,0.0,86,0.00,,,0.00,0.0,meteohub,2013-10-27 07:59:00,
2013-10-27 03:04:00,30.0,26.4,29.99,WSW,238,0.0,0.0,86,0.00,,,0.00,0.0,meteohub,2013-10-27 08:04:00,
2013-10-27 03:09:00,30.4,26.4,29.98,WSW,238,0.0,1.0,85,0.00,,,0.00,0.0,meteohub,2013-10-27 08:09:00,
2013-10-27 03:14:00,30.6,26.2,29.98,SSW,213,0.0,1.0,84,0.00,,,0.00,0.0,meteohub,2013-10-27 08:14:00,
2013-10-27 03:19:00,30.7,26.8,29.98,SSW,213,0.0,1.0,85,0.00,,,0.00,0.0,meteohub,2013-10-27 08:19:00,
2013-10-27 03:24:00,30.7,26.4,29.97,SSW,213,0.0,1.0,84,0.00,,,0.00,0.0,meteohub,2013-10-27 08:24:00,
2013-10-27 03:29:00,30.9,26.6,29.97,SSW,213,0.0,1.0,84,0.00,,,0.00,0.0,meteohub,2013-10-27 08:29:00,
2013-10-27 03:34:00,30.9,26.6,29.97,SSW,197,2.0,2.0,84,0.00,,,0.00,0.0,meteohub,2013-10-27 08:34:00,
2013-10-27 03:39:00,31.3,26.8,29.97,SSW,197,0.0,1.0,83,0.00,,,0.00,0.0,meteohub,2013-10-27 08:39:00,
2013-10-27 03:44:00,31.3,26.8,29.97,South,186,0.0,2.0,83,0.00,,,0.00,0.0,meteohub,2013-10-27 08:44:00,
2013-10-27 03:49:00,31.1,26.6,29.96,South,186,0.0,2.0,83,0.00,,,0.00,0.0,meteohub,2013-10-27 08:49:00,
2013-10-27 03:54:00,30.9,26.6,29.96,South,182,0.0,2.0,84,0.00,,,0.00,0.0,meteohub,2013-10-27 08:54:00,
2013-10-27 03:59:00,30.9,26.6,29.96,South,180,0.0,2.0,84,0.00,,,0.00,0.0,meteohub,2013-10-27 08:59:00,
2013-10-27 04:04:00,31.1,26.8,29.96,SSE,163,1.0,2.0,84,0.00,,,0.00,0.0,meteohub,2013-10-27 09:04:00,
2013-10-27 04:09:00,31.3,27.0,29.95,SSE,163,0.0,2.0,84,0.00,,,0.00,0.0,meteohub,2013-10-27 09:09:00,
2013-10-27 04:14:00,31.3,27.0,29.95,SSE,163,0.0,3.0,84,0.00,,,0.00,0.0,meteohub,2013-10-27 09:14:00,
2013-10-27 04:19:00,31.5,27.1,29.94,SE,144,0.0,3.0,84,0.00,,,0.00,0.0,meteohub,2013-10-27 09:19:00,
2013-10-27 04:24:00,31.6,27.3,29.94,SE,144,0.0,3.0,84,0.00,,,0.00,0.0,meteohub,2013-10-27 09:24:00,
2013-10-27 04:29:00,32.0,27.5,29.94,South,182,0.0,3.0,83,0.00,,,0.00,0.0,meteohub,2013-10-27 09:29:00,
2013-10-27 04:34:00,32.0,27.5,29.93,South,187,0.0,3.0,83,0.00,,,0.00,0.0,meteohub,2013-10-27 09:34:00,
2013-10-27 04:39:00,32.0,27.5,29.93,SSW,205,2.0,2.0,83,0.00,,,0.00,0.0,meteohub,2013-10-27 09:39:00,
2013-10-27 04:44:00,32.0,27.5,29.93,South,187,0.0,3.0,83,0.00,,,0.00,0.0,meteohub,2013-10-27 09:44:00,
2013-10-27 04:49:00,32.2,27.7,29.93,South,178,0.0,3.0,83,0.00,,,0.00,0.0,meteohub,2013-10-27 09:49:00,
2013-10-27 04:55:00,31.8,27.5,29.93,South,178,0.0,3.0,84,0.00,,,0.00,0.0,meteohub,2013-10-27 09:55:00,
2013-10-27 04:59:00,31.6,27.3,29.93,SSE,168,0.0,3.0,84,0.00,,,0.00,0.0,meteohub,2013-10-27 09:59:00,
2013-10-27 05:04:00,31.6,27.3,29.93,South,178,0.0,1.0,84,0.00,,,0.00,0.0,meteohub,2013-10-27 10:04:00,
2013-10-27 05:09:00,31.8,27.5,29.93,South,179,0.0,2.0,84,0.00,,,0.00,0.0,meteohub,2013-10-27 10:09:00,
2013-10-27 05:14:00,31.6,27.3,29.92,ESE,111,0.0,2.0,84,0.00,,,0.00,0.0,meteohub,2013-10-27 10:14:00,
2013-10-27 05:19:00,31.6,27.3,29.92,South,176,0.0,2.0,84,0.00,,,0.00,0.0,meteohub,2013-10-27 10:19:00,
2013-10-27 05:25:00,31.8,27.5,29.92,South,191,0.0,2.0,84,0.00,,,0.00,0.0,meteohub,2013-10-27 10:25:00,
2013-10-27 05:30:00,32.4,28.0,29.92,South,175,0.0,2.0,84,0.00,,,0.00,0.0,meteohub,2013-10-27 10:30:00,
2013-10-27 05:34:00,32.5,28.0,29.91,South,171,0.0,2.0,83,0.00,,,0.00,0.0,meteohub,2013-10-27 10:34:00,
2013-10-27 05:39:00,32.5,28.0,29.91,South,171,0.0,2.0,83,0.00,,,0.00,0.0,meteohub,2013-10-27 10:39:00,
2013-10-27 05:44:00,32.4,27.9,29.91,South,171,0.0,2.0,83,0.00,,,0.00,0.0,meteohub,2013-10-27 10:44:00,
2013-10-27 05:49:00,32.2,27.7,29.91,South,171,0.0,2.0,83,0.00,,,0.00,0.0,meteohub,2013-10-27 10:49:00,
2013-10-27 05:54:00,32.2,27.9,29.91,South,171,0.0,2.0,84,0.00,,,0.00,0.0,meteohub,2013-10-27 10:54:00,
2013-10-27 05:59:00,32.4,28.0,29.90,South,171,0.0,2.0,84,0.00,,,0.00,0.0,meteohub,2013-10-27 10:59:00,
2013-10-27 06:04:00,32.4,28.0,29.90,South,171,0.0,2.0,84,0.00,,,0.00,0.0,meteohub,2013-10-27 11:04:00,
2013-10-27 06:10:00,32.4,28.0,29.90,East,90,0.0,2.0,84,0.00,,,0.00,0.0,meteohub,2013-10-27 11:10:00,
2013-10-27 06:15:00,32.4,28.0,29.89,East,90,0.0,3.0,84,0.00,,,0.00,0.0,meteohub,2013-10-27 11:15:00,
2013-10-27 06:20:00,32.4,28.0,29.89,East,90,0.0,3.0,84,0.00,,,0.00,0.0,meteohub,2013-10-27 11:20:00,
2013-10-27 06:25:00,32.4,28.0,29.89,ESE,118,0.0,3.0,84,0.00,,,0.00,0.0,meteohub,2013-10-27 11:25:00,
2013-10-27 06:30:00,32.4,28.0,29.88,ESE,118,0.0,4.0,84,0.00,,,0.00,0.0,meteohub,2013-10-27 11:30:00,
2013-10-27 06:35:00,32.5,28.2,29.88,SSE,147,0.0,4.0,84,0.00,,,0.00,0.0,meteohub,2013-10-27 11:35:00,
2013-10-27 06:40:00,32.7,28.4,29.87,South,171,0.0,4.0,84,0.00,,,0.00,0.0,meteohub,2013-10-27 11:40:00,
2013-10-27 06:45:00,33.3,28.6,29.87,SSW,212,0.0,2.0,83,0.00,,,0.00,0.0,meteohub,2013-10-27 11:45:00,
2013-10-27 06:50:00,33.4,28.6,29.87,ESE,103,0.0,3.0,82,0.00,,,0.00,0.0,meteohub,2013-10-27 11:50:00,
2013-10-27 06:55:00,33.4,28.6,29.87,ENE,73,0.0,3.0,82,0.00,,,0.00,0.0,meteohub,2013-10-27 11:55:00,
2013-10-27 07:00:00,33.3,28.4,29.87,ENE,73,0.0,3.0,82,0.00,,,0.00,0.0,meteohub,2013-10-27 12:00:00,
2013-10-27 07:05:00,33.3,28.4,29.86,ENE,71,0.0,3.0,82,0.00,,,0.00,0.0,meteohub,2013-10-27 12:05:00,
2013-10-27 07:10:00,33.3,28.6,29.86,ENE,76,0.0,3.0,83,0.00,,,0.00,0.0,meteohub,2013-10-27 12:10:00,
2013-10-27 07:15:00,33.3,28.6,29.86,ENE,75,0.0,4.0,83,0.00,,,0.00,0.0,meteohub,2013-10-27 12:15:00,
2013-10-27 07:20:00,33.1,28.2,29.86,NE,35,0.0,4.0,82,0.00,,,0.00,0.0,meteohub,2013-10-27 12:20:00,
2013-10-27 07:25:00,32.7,27.9,29.86,ENE,69,0.0,2.0,82,0.00,,,0.00,0.0,meteohub,2013-10-27 12:25:00,
2013-10-27 07:30:00,32.5,28.0,29.86,ENE,69,0.0,2.0,83,0.00,,,0.00,0.0,meteohub,2013-10-27 12:30:00,
2013-10-27 07:31:00,32.5,28.0,29.86,ENE,69,0.0,2.0,83,0.00,,,0.00,0.0,meteohub,2013-10-27 12:31:00,
2013-10-27 07:36:00,32.4,27.9,29.85,ENE,69,0.0,1.0,83,0.00,,,0.00,0.0,meteohub,2013-10-27 12:36:00,
2013-10-27 07:41:00,32.2,27.9,29.85,ENE,69,0.0,1.0,84,0.00,,,0.00,0.0,meteohub,2013-10-27 12:41:00,
2013-10-27 07:46:00,32.2,27.9,29.85,ENE,69,0.0,2.0,84,0.00,,,0.00,0.0,meteohub,2013-10-27 12:46:00,
2013-10-27 07:51:00,32.2,27.9,29.85,ENE,69,0.0,2.0,84,0.00,,,0.00,0.0,meteohub,2013-10-27 12:51:00,
2013-10-27 07:56:00,32.2,28.2,29.85,ENE,69,0.0,2.0,85,0.00,,,0.00,0.0,meteohub,2013-10-27 12:56:00,
2013-10-27 08:01:00,32.2,27.9,29.85,ENE,69,0.0,2.0,84,0.00,,,0.00,0.0,meteohub,2013-10-27 13:01:00,
2013-10-27 08:06:00,32.4,28.0,29.85,SSE,164,1.0,2.0,84,0.00,,,0.00,5.0,meteohub,2013-10-27 13:06:00,
2013-10-27 08:11:00,32.7,28.4,29.85,SSE,159,0.0,2.0,84,0.00,,,0.00,7.0,meteohub,2013-10-27 13:11:00,
2013-10-27 08:16:00,33.1,28.4,29.85,ESE,117,0.0,2.0,83,0.00,,,0.00,7.0,meteohub,2013-10-27 13:16:00,
2013-10-27 08:21:00,33.4,28.6,29.85,SE,130,0.0,2.0,82,0.00,,,0.00,9.0,meteohub,2013-10-27 13:21:00,
2013-10-27 08:26:00,33.6,28.8,29.85,South,190,0.0,3.0,82,0.00,,,0.00,12.0,meteohub,2013-10-27 13:26:00,
2013-10-27 08:31:00,33.6,28.8,29.85,South,190,0.0,3.0,82,0.00,,,0.00,14.0,meteohub,2013-10-27 13:31:00,
2013-10-27 08:36:00,33.8,28.9,29.85,SE,130,0.0,3.0,82,0.00,,,0.00,16.0,meteohub,2013-10-27 13:36:00,
2013-10-27 08:41:00,33.8,28.9,29.85,SW,225,0.0,3.0,82,0.00,,,0.00,18.0,meteohub,2013-10-27 13:41:00,
2013-10-27 08:46:00,33.6,28.8,29.85,North,0,0.0,3.0,82,0.00,,,0.00,19.0,meteohub,2013-10-27 13:46:00,
2013-10-27 08:51:00,33.6,28.9,29.86,ENE,72,0.0,3.0,83,0.00,,,0.00,19.0,meteohub,2013-10-27 13:51:00,
2013-10-27 08:56:00,33.3,28.4,29.86,ENE,70,0.0,2.0,82,0.00,,,0.00,21.0,meteohub,2013-10-27 13:56:00,
2013-10-27 09:01:00,32.9,28.6,29.86,ENE,70,0.0,2.0,84,0.00,,,0.00,23.0,meteohub,2013-10-27 14:01:00,
2013-10-27 09:06:00,33.3,28.9,29.86,NW,321,0.0,2.0,84,0.00,,,0.00,25.0,meteohub,2013-10-27 14:06:00,
2013-10-27 09:11:00,33.8,29.1,29.86,NW,322,0.0,1.0,83,0.00,,,0.00,26.0,meteohub,2013-10-27 14:11:00,
2013-10-27 09:16:00,34.2,29.5,29.86,NW,322,0.0,1.0,83,0.00,,,0.00,28.0,meteohub,2013-10-27 14:16:00,
2013-10-27 09:21:00,34.5,29.7,29.86,NW,322,0.0,1.0,82,0.00,,,0.00,28.0,meteohub,2013-10-27 14:21:00,
2013-10-27 09:26:00,35.2,30.0,29.86,NW,322,0.0,1.0,81,0.00,,,0.00,30.0,meteohub,2013-10-27 14:26:00,
2013-10-27 09:31:00,35.4,29.8,29.86,NW,322,0.0,0.0,80,0.00,,,0.00,37.0,meteohub,2013-10-27 14:31:00,
2013-10-27 09:36:00,36.0,29.8,29.87,NNW,327,2.0,2.0,78,0.00,,,0.00,40.0,meteohub,2013-10-27 14:36:00,
2013-10-27 09:41:00,36.3,30.4,29.88,NNW,340,3.0,3.0,79,0.00,,,0.00,44.0,meteohub,2013-10-27 14:41:00,
2013-10-27 09:46:00,36.9,30.6,29.88,NW,308,0.0,3.0,78,0.00,,,0.00,39.0,meteohub,2013-10-27 14:46:00,
2013-10-27 09:51:00,37.2,30.7,29.88,NW,322,0.0,4.0,77,0.00,,,0.00,40.0,meteohub,2013-10-27 14:51:00,
2013-10-27 09:56:00,37.4,30.9,29.88,NW,322,0.0,4.0,77,0.00,,,0.00,47.0,meteohub,2013-10-27 14:56:00,
2013-10-27 10:01:00,37.8,31.3,29.87,NNW,332,0.0,4.0,77,0.00,,,0.00,46.0,meteohub,2013-10-27 15:01:00,
2013-10-27 10:07:00,37.9,31.6,29.87,NE,40,0.0,2.0,78,0.00,,,0.00,44.0,meteohub,2013-10-27 15:07:00,
2013-10-27 10:12:00,38.1,31.8,29.87,NE,40,0.0,2.0,78,0.00,,,0.00,49.0,meteohub,2013-10-27 15:12:00,
2013-10-27 10:17:00,38.8,32.2,29.87,NE,41,0.0,1.0,77,0.00,,,0.00,53.0,meteohub,2013-10-27 15:17:00,
2013-10-27 10:22:00,39.6,32.5,29.87,NE,41,0.0,1.0,76,0.00,,,0.00,49.0,meteohub,2013-10-27 15:22:00,
2013-10-27 10:27:00,40.5,33.1,29.87,WNW,302,0.0,1.0,75,0.00,,,0.00,42.0,meteohub,2013-10-27 15:27:00,
2013-10-27 10:32:00,41.0,33.1,29.88,WNW,302,2.0,2.0,73,0.00,,,0.00,40.0,meteohub,2013-10-27 15:32:00,
2013-10-27 10:37:00,41.5,33.3,29.88,West,266,1.0,3.0,72,0.00,,,0.00,42.0,meteohub,2013-10-27 15:37:00,
2013-10-27 10:42:00,42.1,33.4,29.88,West,266,0.0,3.0,71,0.00,,,0.00,39.0,meteohub,2013-10-27 15:42:00,
2013-10-27 10:47:00,42.4,33.6,29.88,West,266,0.0,3.0,71,0.00,,,0.00,39.0,meteohub,2013-10-27 15:47:00,
2013-10-27 10:52:00,43.0,33.8,29.87,West,261,2.0,3.0,70,0.00,,,0.00,42.0,meteohub,2013-10-27 15:52:00,
2013-10-27 10:57:00,43.2,34.3,29.87,West,261,0.0,3.0,71,0.00,,,0.00,67.0,meteohub,2013-10-27 15:57:00,
2013-10-27 11:02:00,44.2,35.1,29.88,West,261,0.0,3.0,70,0.00,,,0.00,49.0,meteohub,2013-10-27 16:02:00,
2013-10-27 11:07:00,44.4,34.9,29.88,West,261,0.0,3.0,69,0.00,,,0.00,207.0,meteohub,2013-10-27 16:07:00,
2013-10-27 11:12:00,45.3,35.1,29.88,West,280,1.0,3.0,67,0.00,,,0.00,283.0,meteohub,2013-10-27 16:12:00,
2013-10-27 11:17:00,46.2,34.3,29.88,West,265,1.0,5.0,63,0.00,,,0.00,322.0,meteohub,2013-10-27 16:17:00,
2013-10-27 11:22:00,47.1,34.7,29.88,West,271,2.0,5.0,62,0.00,,,0.00,262.0,meteohub,2013-10-27 16:22:00,
2013-10-27 11:27:00,47.5,36.0,29.87,NW,307,0.0,4.0,64,0.00,,,0.00,128.0,meteohub,2013-10-27 16:27:00,
2013-10-27 11:32:00,48.0,34.9,29.87,West,279,5.0,5.0,60,0.00,,,0.00,156.0,meteohub,2013-10-27 16:32:00,
2013-10-27 11:37:00,48.6,34.9,29.87,WSW,248,4.0,7.0,59,0.00,,,0.00,127.0,meteohub,2013-10-27 16:37:00,
2013-10-27 11:42:00,48.9,34.9,29.87,NNW,344,2.0,7.0,58,0.00,,,0.00,83.0,meteohub,2013-10-27 16:42:00,
2013-10-27 11:47:00,49.3,35.6,29.88,NW,317,5.0,7.0,59,0.00,,,0.00,93.0,meteohub,2013-10-27 16:47:00,
2013-10-27 11:52:00,49.6,35.4,29.87,NNE,21,3.0,6.0,58,0.00,,,0.00,56.0,meteohub,2013-10-27 16:52:00,
2013-10-27 11:57:00,49.8,34.7,29.87,NNW,346,0.0,6.0,56,0.00,,,0.00,56.0,meteohub,2013-10-27 16:57:00,
2013-10-27 12:02:00,50.2,35.6,29.88,NW,310,3.0,6.0,57,0.00,,,0.00,72.0,meteohub,2013-10-27 17:02:00,
2013-10-27 12:07:00,50.7,36.5,29.87,WNW,299,2.0,6.0,58,0.00,,,0.00,364.0,meteohub,2013-10-27 17:07:00,
2013-10-27 12:12:00,51.1,37.2,29.87,WNW,284,1.0,6.0,59,0.00,,,0.00,454.0,meteohub,2013-10-27 17:12:00,
2013-10-27 12:17:00,51.6,37.8,29.88,WSW,257,5.0,6.0,59,0.00,,,0.00,478.0,meteohub,2013-10-27 17:17:00,
2013-10-27 12:22:00,51.6,35.6,29.88,West,269,1.0,8.0,54,0.00,,,0.00,483.0,meteohub,2013-10-27 17:22:00,
2013-10-27 12:27:00,52.3,37.0,29.88,ENE,65,4.0,8.0,56,0.00,,,0.00,487.0,meteohub,2013-10-27 17:27:00,
2013-10-27 12:32:00,52.3,37.9,29.88,NW,314,4.0,8.0,58,0.00,,,0.00,490.0,meteohub,2013-10-27 17:32:00,
2013-10-27 12:37:00,52.5,36.9,29.88,NW,323,2.0,7.0,55,0.00,,,0.00,494.0,meteohub,2013-10-27 17:37:00,
2013-10-27 12:42:00,52.9,37.2,29.88,West,260,2.0,7.0,55,0.00,,,0.00,496.0,meteohub,2013-10-27 17:42:00,
2013-10-27 12:47:00,53.1,37.8,29.88,NW,309,3.0,8.0,56,0.00,,,0.00,497.0,meteohub,2013-10-27 17:47:00,
2013-10-27 12:52:00,53.1,36.9,29.88,West,269,1.0,8.0,54,0.00,,,0.00,471.0,meteohub,2013-10-27 17:52:00,
2013-10-27 12:57:00,53.4,37.6,29.88,WSW,252,4.0,7.0,55,0.00,,,0.00,494.0,meteohub,2013-10-27 17:57:00,
2013-10-27 13:02:00,54.0,38.1,29.88,NNE,32,1.0,7.0,55,0.00,,,0.00,471.0,meteohub,2013-10-27 18:02:00,
2013-10-27 13:07:00,54.3,37.9,29.87,NW,320,2.0,6.0,54,0.00,,,0.00,501.0,meteohub,2013-10-27 18:07:00,
2013-10-27 13:12:00,54.1,37.4,29.88,NNW,342,0.0,6.0,53,0.00,,,0.00,487.0,meteohub,2013-10-27 18:12:00,
2013-10-27 13:17:00,54.7,38.3,29.88,NE,46,3.0,8.0,54,0.00,,,0.00,487.0,meteohub,2013-10-27 18:17:00,
2013-10-27 13:22:00,55.0,39.2,29.87,West,274,0.0,8.0,55,0.00,,,0.00,279.0,meteohub,2013-10-27 18:22:00,
2013-10-27 13:27:00,55.0,38.3,29.87,WNW,300,2.0,8.0,53,0.00,,,0.00,309.0,meteohub,2013-10-27 18:27:00,
2013-10-27 13:32:00,55.4,38.1,29.88,NNE,19,1.0,7.0,52,0.00,,,0.00,130.0,meteohub,2013-10-27 18:32:00,
2013-10-27 13:37:00,55.4,38.1,29.88,WSW,255,3.0,7.0,52,0.00,,,0.00,385.0,meteohub,2013-10-27 18:37:00,
2013-10-27 13:42:00,55.0,38.3,29.88,West,265,2.0,6.0,53,0.00,,,0.00,308.0,meteohub,2013-10-27 18:42:00,
2013-10-27 13:47:00,54.9,37.6,29.87,NE,52,3.0,6.0,52,0.00,,,0.00,483.0,meteohub,2013-10-27 18:47:00,
2013-10-27 13:52:00,54.9,39.0,29.88,NW,325,1.0,7.0,55,0.00,,,0.00,362.0,meteohub,2013-10-27 18:52:00,
2013-10-27 13:57:00,55.9,39.0,29.88,NNW,341,2.0,7.0,53,0.00,,,0.00,137.0,meteohub,2013-10-27 18:57:00,
2013-10-27 14:02:00,55.8,39.4,29.88,WNW,298,1.0,7.0,54,0.00,,,0.00,285.0,meteohub,2013-10-27 19:02:00,
2013-10-27 14:07:00,55.8,38.8,29.88,WNW,287,3.0,7.0,53,0.00,,,0.00,438.0,meteohub,2013-10-27 19:07:00,
2013-10-27 14:12:00,55.0,38.3,29.88,North,355,3.0,8.0,53,0.00,,,0.00,380.0,meteohub,2013-10-27 19:12:00,
2013-10-27 14:17:00,54.9,37.6,29.89,NE,54,6.0,8.0,52,0.00,,,0.00,299.0,meteohub,2013-10-27 19:17:00,
2013-10-27 14:22:00,55.0,38.3,29.89,NNE,13,2.0,10.0,53,0.00,,,0.00,338.0,meteohub,2013-10-27 19:22:00,
2013-10-27 14:27:00,55.0,38.3,29.89,WNW,289,3.0,10.0,53,0.00,,,0.00,380.0,meteohub,2013-10-27 19:27:00,
2013-10-27 14:32:00,55.0,38.3,29.89,NNE,29,2.0,8.0,53,0.00,,,0.00,367.0,meteohub,2013-10-27 19:32:00,
2013-10-27 14:37:00,55.4,38.5,29.89,NNE,22,3.0,9.0,53,0.00,,,0.00,410.0,meteohub,2013-10-27 19:37:00,
2013-10-27 14:42:00,55.2,37.9,29.89,NNE,13,3.0,9.0,52,0.00,,,0.00,367.0,meteohub,2013-10-27 19:42:00,
2013-10-27 14:47:00,55.0,38.3,29.89,NW,322,4.0,9.0,53,0.00,,,0.00,420.0,meteohub,2013-10-27 19:47:00,
2013-10-27 14:52:00,55.2,37.9,29.89,NW,304,2.0,9.0,52,0.00,,,0.00,443.0,meteohub,2013-10-27 19:52:00,
2013-10-27 14:57:00,55.4,37.6,29.89,NNE,20,4.0,8.0,51,0.00,,,0.00,436.0,meteohub,2013-10-27 19:57:00,
2013-10-27 15:02:00,55.6,37.8,29.89,North,355,3.0,8.0,51,0.00,,,0.00,429.0,meteohub,2013-10-27 20:02:00,
2013-10-27 15:07:00,55.9,38.5,29.89,NE,47,4.0,7.0,52,0.00,,,0.00,424.0,meteohub,2013-10-27 20:07:00,
2013-10-27 15:12:00,56.1,39.2,29.89,West,275,1.0,7.0,53,0.00,,,0.00,373.0,meteohub,2013-10-27 20:12:00,
2013-10-27 15:17:00,56.1,38.3,29.89,WNW,295,5.0,8.0,51,0.00,,,0.00,359.0,meteohub,2013-10-27 20:17:00,
2013-10-27 15:22:00,55.9,37.6,29.89,West,274,2.0,8.0,50,0.00,,,0.00,290.0,meteohub,2013-10-27 20:22:00,
2013-10-27 15:27:00,55.9,38.1,29.90,NW,325,3.0,8.0,51,0.00,,,0.00,301.0,meteohub,2013-10-27 20:27:00,
2013-10-27 15:32:00,55.9,37.6,29.90,NW,319,2.0,6.0,50,0.00,,,0.00,239.0,meteohub,2013-10-27 20:32:00,
2013-10-27 15:37:00,55.9,38.1,29.90,NNE,13,0.0,9.0,51,0.00,,,0.00,304.0,meteohub,2013-10-27 20:37:00,
2013-10-27 15:42:00,55.9,37.6,29.90,NW,304,2.0,9.0,50,0.00,,,0.00,163.0,meteohub,2013-10-27 20:42:00,
2013-10-27 15:47:00,55.8,37.9,29.91,West,274,4.0,11.0,51,0.00,,,0.00,178.0,meteohub,2013-10-27 20:47:00,
2013-10-27 15:52:00,55.6,37.8,29.91,ENE,60,3.0,11.0,51,0.00,,,0.00,181.0,meteohub,2013-10-27 20:52:00,
2013-10-27 15:57:00,55.6,37.8,29.91,North,5,2.0,11.0,51,0.00,,,0.00,176.0,meteohub,2013-10-27 20:57:00,
2013-10-27 16:02:00,55.2,37.9,29.92,NE,34,2.0,10.0,52,0.00,,,0.00,193.0,meteohub,2013-10-27 21:02:00,
2013-10-27 16:07:00,55.2,37.4,29.92,NNE,12,6.0,8.0,51,0.00,,,0.00,54.0,meteohub,2013-10-27 21:07:00,
2013-10-27 16:12:00,55.2,37.9,29.92,West,275,3.0,8.0,52,0.00,,,0.00,53.0,meteohub,2013-10-27 21:12:00,
2013-10-27 16:17:00,55.2,37.9,29.92,NW,323,5.0,7.0,52,0.00,,,0.00,47.0,meteohub,2013-10-27 21:17:00,
2013-10-27 16:22:00,55.2,37.4,29.92,West,259,3.0,11.0,51,0.00,,,0.00,33.0,meteohub,2013-10-27 21:22:00,
2013-10-27 16:27:00,55.2,36.9,29.93,WNW,292,0.0,11.0,50,0.00,,,0.00,35.0,meteohub,2013-10-27 21:27:00,
2013-10-27 16:32:00,55.0,37.2,29.93,WNW,286,0.0,11.0,51,0.00,,,0.00,32.0,meteohub,2013-10-27 21:32:00,
2013-10-27 16:37:00,55.0,37.8,29.93,North,5,1.0,7.0,52,0.00,,,0.00,32.0,meteohub,2013-10-27 21:37:00,
2013-10-27 16:42:00,55.0,37.2,29.94,NNW,344,3.0,7.0,51,0.00,,,0.00,32.0,meteohub,2013-10-27 21:42:00,
2013-10-27 16:47:00,55.0,37.2,29.94,NNW,336,3.0,8.0,51,0.00,,,0.00,33.0,meteohub,2013-10-27 21:47:00,
2013-10-27 16:52:00,55.0,36.7,29.94,North,5,4.0,8.0,50,0.00,,,0.00,33.0,meteohub,2013-10-27 21:52:00,
2013-10-27 16:57:00,54.7,36.9,29.94,NE,41,9.0,9.0,51,0.00,,,0.00,32.0,meteohub,2013-10-27 21:57:00,
2013-10-27 17:02:00,54.5,36.7,29.94,NNW,331,1.0,9.0,51,0.00,,,0.00,28.0,meteohub,2013-10-27 22:02:00,
2013-10-27 17:07:00,54.5,36.7,29.94,NNE,26,2.0,9.0,51,0.00,,,0.00,26.0,meteohub,2013-10-27 22:07:00,
2013-10-27 17:12:00,54.1,36.3,29.94,NW,323,3.0,9.0,51,0.00,,,0.00,28.0,meteohub,2013-10-27 22:12:00,
2013-10-27 17:17:00,54.0,36.3,29.95,ENE,66,2.0,9.0,51,0.00,,,0.00,33.0,meteohub,2013-10-27 22:17:00,
2013-10-27 17:22:00,53.6,36.0,29.95,NNW,346,3.0,9.0,51,0.00,,,0.00,25.0,meteohub,2013-10-27 22:22:00,
2013-10-27 17:27:00,53.4,35.8,29.96,North,355,0.0,9.0,51,0.00,,,0.00,23.0,meteohub,2013-10-27 22:27:00,
2013-10-27 17:32:00,53.1,36.0,29.96,NE,41,0.0,9.0,52,0.00,,,0.00,23.0,meteohub,2013-10-27 22:32:00,
2013-10-27 17:37:00,52.5,35.4,29.96,ENE,58,1.0,8.0,52,0.00,,,0.00,19.0,meteohub,2013-10-27 22:37:00,
2013-10-27 17:42:00,52.3,35.8,29.96,NE,53,3.0,8.0,53,0.00,,,0.00,19.0,meteohub,2013-10-27 22:42:00,
2013-10-27 17:47:00,52.0,35.4,29.96,NE,42,2.0,9.0,53,0.00,,,0.00,18.0,meteohub,2013-10-27 22:47:00,
2013-10-27 17:52:00,51.4,35.4,29.96,WNW,300,0.0,9.0,54,0.00,,,0.00,14.0,meteohub,2013-10-27 22:52:00,
2013-10-27 17:57:00,50.9,35.2,29.97,NW,320,1.0,9.0,55,0.00,,,0.00,12.0,meteohub,2013-10-27 22:57:00,
2013-10-27 18:02:00,50.5,35.4,29.98,NW,319,2.0,8.0,56,0.00,,,0.00,11.0,meteohub,2013-10-27 23:02:00,
2013-10-27 18:07:00,50.2,35.1,29.98,North,355,1.0,8.0,56,0.00,,,0.00,9.0,meteohub,2013-10-27 23:07:00,
2013-10-27 18:12:00,49.5,34.9,29.99,NE,39,2.0,8.0,57,0.00,,,0.00,5.0,meteohub,2013-10-27 23:12:00,
2013-10-27 18:17:00,49.1,34.9,29.99,NE,46,2.0,8.0,58,0.00,,,0.00,0.0,meteohub,2013-10-27 23:17:00,
2013-10-27 18:22:00,48.6,34.9,30.00,NE,42,0.0,5.0,59,0.00,,,0.00,0.0,meteohub,2013-10-27 23:22:00,
2013-10-27 18:27:00,48.0,34.3,30.00,NW,315,1.0,6.0,59,0.00,,,0.00,0.0,meteohub,2013-10-27 23:27:00,
2013-10-27 18:32:00,47.8,34.2,30.01,NNE,19,1.0,6.0,59,0.00,,,0.00,0.0,meteohub,2013-10-27 23:32:00,
2013-10-27 18:37:00,47.3,34.2,30.01,NNW,342,0.0,4.0,60,0.00,,,0.00,0.0,meteohub,2013-10-27 23:37:00,
2013-10-27 18:42:00,46.8,34.0,30.01,NE,44,0.0,4.0,61,0.00,,,0.00,0.0,meteohub,2013-10-27 23:42:00,
2013-10-27 18:47:00,46.6,33.8,30.02,NW,320,0.0,4.0,61,0.00,,,0.00,0.0,meteohub,2013-10-27 23:47:00,
2013-10-27 18:52:00,46.0,33.8,30.02,NW,319,0.0,6.0,62,0.00,,,0.00,0.0,meteohub,2013-10-27 23:52:00,
2013-10-27 18:57:00,45.7,33.4,30.02,NE,40,0.0,6.0,62,0.00,,,0.00,0.0,meteohub,2013-10-27 23:57:00,
2013-10-27 19:02:00,45.1,33.6,30.03,North,355,0.0,4.0,64,0.00,,,0.00,0.0,meteohub,2013-10-28 00:02:00,
2013-10-27 19:07:00,45.0,33.4,30.03,WNW,297,4.0,4.0,64,0.00,,,0.00,0.0,meteohub,2013-10-28 00:07:00,
2013-10-27 19:12:00,44.8,33.8,30.04,NW,304,3.0,5.0,65,0.00,,,0.00,0.0,meteohub,2013-10-28 00:12:00,
2013-10-27 19:17:00,44.6,33.6,30.04,WNW,292,1.0,5.0,65,0.00,,,0.00,0.0,meteohub,2013-10-28 00:17:00,
2013-10-27 19:22:00,44.2,33.3,30.04,NNW,333,0.0,7.0,65,0.00,,,0.00,0.0,meteohub,2013-10-28 00:22:00,
2013-10-27 19:27:00,44.1,33.4,30.04,NNE,15,0.0,7.0,66,0.00,,,0.00,0.0,meteohub,2013-10-28 00:27:00,
2013-10-27 19:32:00,43.7,33.1,30.05,ENE,61,0.0,4.0,66,0.00,,,0.00,0.0,meteohub,2013-10-28 00:32:00,
2013-10-27 19:37:00,43.5,33.3,30.05,NW,307,1.0,3.0,67,0.00,,,0.00,0.0,meteohub,2013-10-28 00:37:00,
2013-10-27 19:42:00,43.3,33.1,30.06,NNE,16,0.0,3.0,67,0.00,,,0.00,0.0,meteohub,2013-10-28 00:42:00,
2013-10-27 19:47:00,43.2,32.9,30.06,NNE,23,0.0,3.0,67,0.00,,,0.00,0.0,meteohub,2013-10-28 00:47:00,
2013-10-27 19:52:00,42.8,32.5,30.06,ENE,58,3.0,4.0,67,0.00,,,0.00,0.0,meteohub,2013-10-28 00:52:00,
2013-10-27 19:57:00,42.6,32.7,30.07,NE,53,0.0,4.0,68,0.00,,,0.00,0.0,meteohub,2013-10-28 00:57:00,
2013-10-27 20:02:00,42.4,32.7,30.07,NE,51,2.0,4.0,68,0.00,,,0.00,0.0,meteohub,2013-10-28 01:02:00,
2013-10-27 20:07:00,42.3,32.5,30.08,ENE,57,2.0,5.0,68,0.00,,,0.00,0.0,meteohub,2013-10-28 01:07:00,
2013-10-27 20:12:00,42.1,32.7,30.08,NNE,20,3.0,5.0,69,0.00,,,0.00,0.0,meteohub,2013-10-28 01:12:00,
2013-10-27 20:17:00,42.1,32.7,30.09,NW,319,1.0,7.0,69,0.00,,,0.00,0.0,meteohub,2013-10-28 01:17:00,
2013-10-27 20:22:00,41.7,32.4,30.09,North,5,1.0,7.0,69,0.00,,,0.00,0.0,meteohub,2013-10-28 01:22:00,
2013-10-27 20:27:00,41.7,32.4,30.10,NNW,336,3.0,7.0,69,0.00,,,0.00,0.0,meteohub,2013-10-28 01:27:00,
2013-10-27 20:32:00,41.9,32.5,30.10,NE,46,2.0,5.0,69,0.00,,,0.00,0.0,meteohub,2013-10-28 01:32:00,
2013-10-27 20:38:00,41.9,32.5,30.11,North,355,3.0,5.0,69,0.00,,,0.00,0.0,meteohub,2013-10-28 01:38:00,
2013-10-27 20:43:00,42.1,32.7,30.11,NNE,28,3.0,6.0,69,0.00,,,0.00,0.0,meteohub,2013-10-28 01:43:00,
2013-10-27 20:48:00,42.1,32.4,30.11,NNE,21,2.0,8.0,68,0.00,,,0.00,0.0,meteohub,2013-10-28 01:48:00,
2013-10-27 20:53:00,41.9,32.2,30.11,North,355,4.0,8.0,68,0.00,,,0.00,0.0,meteohub,2013-10-28 01:53:00,
2013-10-27 20:58:00,41.7,32.0,30.12,NE,46,5.0,8.0,68,0.00,,,0.00,0.0,meteohub,2013-10-28 01:58:00,
2013-10-27 21:03:00,41.4,32.0,30.12,North,5,4.0,7.0,69,0.00,,,0.00,0.0,meteohub,2013-10-28 02:03:00,
2013-10-27 21:08:00,41.2,31.8,30.12,NNW,338,3.0,7.0,69,0.00,,,0.00,0.0,meteohub,2013-10-28 02:08:00,
2013-10-27 21:13:00,41.0,31.6,30.13,NW,313,0.0,6.0,69,0.00,,,0.00,0.0,meteohub,2013-10-28 02:13:00,
2013-10-27 21:18:00,40.6,31.6,30.13,NW,324,4.0,6.0,70,0.00,,,0.00,0.0,meteohub,2013-10-28 02:18:00,
2013-10-27 21:23:00,40.5,31.5,30.13,NNW,346,4.0,6.0,70,0.00,,,0.00,0.0,meteohub,2013-10-28 02:23:00,
2013-10-27 21:28:00,40.3,31.6,30.14,NE,34,3.0,6.0,71,0.00,,,0.00,0.0,meteohub,2013-10-28 02:28:00,
2013-10-27 21:33:00,39.9,31.3,30.14,ENE,57,4.0,7.0,71,0.00,,,0.00,0.0,meteohub,2013-10-28 02:33:00,
2013-10-27 21:38:00,39.7,31.5,30.14,NNE,27,1.0,7.0,72,0.00,,,0.00,0.0,meteohub,2013-10-28 02:38:00,
2013-10-27 21:43:00,39.6,31.3,30.15,NNE,28,1.0,6.0,72,0.00,,,0.00,0.0,meteohub,2013-10-28 02:43:00,
2013-10-27 21:48:00,39.4,31.1,30.15,NNE,32,3.0,6.0,72,0.00,,,0.00,0.0,meteohub,2013-10-28 02:48:00,
2013-10-27 21:53:00,39.2,30.9,30.15,NE,42,0.0,5.0,72,0.00,,,0.00,0.0,meteohub,2013-10-28 02:53:00,
2013-10-27 21:58:00,38.8,30.6,30.16,ENE,62,1.0,5.0,72,0.00,,,0.00,0.0,meteohub,2013-10-28 02:58:00,
2013-10-27 22:03:00,38.7,30.7,30.16,NE,36,1.0,5.0,73,0.00,,,0.00,0.0,meteohub,2013-10-28 03:03:00,
2013-10-27 22:08:00,38.7,30.7,30.16,NE,51,0.0,6.0,73,0.00,,,0.00,0.0,meteohub,2013-10-28 03:08:00,
2013-10-27 22:13:00,38.5,30.6,30.16,NNE,19,1.0,6.0,73,0.00,,,0.00,0.0,meteohub,2013-10-28 03:13:00,
2013-10-27 22:18:00,38.1,30.6,30.16,ENE,61,0.0,6.0,74,0.00,,,0.00,0.0,meteohub,2013-10-28 03:18:00,
2013-10-27 22:23:00,37.8,30.6,30.17,ENE,58,0.0,4.0,75,0.00,,,0.00,0.0,meteohub,2013-10-28 03:23:00,
2013-10-27 22:28:00,37.6,30.4,30.17,NNE,20,2.0,3.0,75,0.00,,,0.00,0.0,meteohub,2013-10-28 03:28:00,
2013-10-27 22:33:00,37.4,30.2,30.17,NE,35,0.0,3.0,75,0.00,,,0.00,0.0,meteohub,2013-10-28 03:33:00,
2013-10-27 22:38:00,37.0,30.2,30.17,NW,325,0.0,3.0,76,0.00,,,0.00,0.0,meteohub,2013-10-28 03:38:00,
2013-10-27 22:43:00,36.9,30.0,30.18,ENE,63,1.0,3.0,76,0.00,,,0.00,0.0,meteohub,2013-10-28 03:43:00,
2013-10-27 22:48:00,36.7,30.2,30.18,ENE,62,1.0,3.0,77,0.00,,,0.00,0.0,meteohub,2013-10-28 03:48:00,
2013-10-27 22:53:00,36.3,29.8,30.18,NNW,342,0.0,2.0,77,0.00,,,0.00,0.0,meteohub,2013-10-28 03:53:00,
2013-10-27 22:58:00,36.1,29.7,30.18,NNE,30,1.0,2.0,77,0.00,,,0.00,0.0,meteohub,2013-10-28 03:58:00,
2013-10-27 23:01:00,36.1,29.7,30.19,NNE,30,0.0,3.0,77,0.00,,,0.00,0.0,meteohub,2013-10-28 04:01:00,
2013-10-27 23:02:00,36.1,29.7,30.19,NNE,30,0.0,3.0,77,0.00,,,0.00,0.0,meteohub,2013-10-28 04:02:00,
2013-10-27 23:07:00,36.0,29.8,30.19,NNE,30,0.0,4.0,78,0.00,,,0.00,0.0,meteohub,2013-10-28 04:07:00,
2013-10-27 23:12:00,35.8,29.7,30.19,NE,40,0.0,4.0,78,0.00,,,0.00,0.0,meteohub,2013-10-28 04:12:00,
2013-10-27 23:17:00,35.8,29.7,30.19,NW,314,0.0,6.0,78,0.00,,,0.00,0.0,meteohub,2013-10-28 04:17:00,
2013-10-27 23:22:00,35.4,29.3,30.19,NW,315,0.0,6.0,78,0.00,,,0.00,0.0,meteohub,2013-10-28 04:22:00,
2013-10-27 23:27:00,35.1,29.1,30.20,NNE,30,1.0,6.0,79,0.00,,,0.00,0.0,meteohub,2013-10-28 04:27:00,
2013-10-27 23:32:00,35.1,29.1,30.20,NE,40,0.0,2.0,79,0.00,,,0.00,0.0,meteohub,2013-10-28 04:32:00,
2013-10-27 23:37:00,35.1,29.1,30.20,NE,40,0.0,4.0,79,0.00,,,0.00,0.0,meteohub,2013-10-28 04:37:00,
2013-10-27 23:42:00,34.9,29.1,30.20,NW,316,0.0,4.0,79,0.00,,,0.00,0.0,meteohub,2013-10-28 04:42:00,
2013-10-27 23:47:00,34.5,28.8,30.20,NE,51,2.0,4.0,79,0.00,,,0.00,0.0,meteohub,2013-10-28 04:47:00,
2013-10-27 23:52:00,34.5,28.9,30.20,NE,50,2.0,4.0,80,0.00,,,0.00,0.0,meteohub,2013-10-28 04:52:00,
2013-10-27 23:57:00,34.9,29.1,30.20,NE,41,3.0,4.0,79,0.00,,,0.00,0.0,meteohub,2013-10-28 04:57:00,